[Iaude] MPEC S95: 2019 SR3 [a=2.01,e=0.49,i=8.9,H=20.4]

mpec at marsden.cfa.harvard.edu mpec at marsden.cfa.harvard.edu
Thu Sep 26 07:13:58 EDT 2019


M.P.E.C. 2019-S95                            Issued 2019 September 26, 11:12 UT

     The Minor Planet Electronic Circulars contain information on unusual
         minor planets and routine data on comets.  They are published
    on behalf of Division F of the International Astronomical Union by the
          Minor Planet Center, Smithsonian Astrophysical Observatory,
                          Cambridge, MA 02138, U.S.A.

             Prepared using the Tamkin Foundation Computer Network

                              MPC at CFA.HARVARD.EDU
            URL https://www.minorplanetcenter.net/    ISSN 1523-6714

                                    2019 SR3                                    


Observations:
     K19S03R  C2019 09 17.38170622 09 21.826-13 20 56.47         21.5 GVES095F51
     K19S03R  C2019 09 17.39268222 09 20.901-13 21 08.15         21.7 GVES095F51
     K19S03R  C2019 09 17.41513122 09 19.018-13 21 32.14         21.4 GVES095F51
     K19S03R  C2019 09 23.33127122 01 56.502-15 04 23.04         21.2 GVES095F51
     K19S03R  C2019 09 23.34195022 01 55.695-15 04 33.95         21.4 GVES095F51
     K19S03R* C2019 09 25.33116 21 59 39.904-15 37 38.50         21.8 wUES095F51
     K19S03R  C2019 09 25.34076 21 59 39.214-15 37 47.94         21.8 wUES095F51
     K19S03R  C2019 09 25.35037 21 59 38.512-15 37 57.35         22.0 wUES095F51
     K19S03R  C2019 09 25.35997 21 59 37.846-15 38 06.69         21.5 wUES095F51
     K19S03R  C2019 09 25.36662 21 59 37.367-15 38 13.19         21.7 wUES095F51
     K19S03R  C2019 09 25.38014 21 59 36.402-15 38 26.49         21.4 wUES095F51
     K19S03R  C2019 09 25.39363 21 59 35.450-15 38 39.57         21.7 wUES095F51
     K19S03R  C2019 09 25.40714 21 59 34.468-15 38 52.88         21.5 wUES095F51
     K19S03R KC2019 09 26.13133421 58 47.59 -15 50 43.2          21.7 VuES095H21
     K19S03R KC2019 09 26.13742821 58 47.19 -15 50 49.5          21.5 VuES095H21
     K19S03R KC2019 09 26.14718221 58 46.52 -15 50 58.8          21.6 VuES095H21

Observer details:
F51 Pan-STARRS 1, Haleakala.  Observers J. Bulger, K. Chambers, T. Lowe, E. 
   Magnier, A. Schultz, M. Willman.  Measurers S. Chastel, M. Huber, Y. 
   Ramanjooloo, R. Wainscoat, R. Weryk, K. Chambers, T. de Boer, L. Denneau, J. 
   Fairlamb, H. Flewelling, C.-C. Lin, E. Magnier.  1.8-m Ritchey-Chretien + 
   CCD.
H21 Astronomical Research Observatory, Westfield.  Observer R. Holmes.  
    Measurers S. Foglia, L. Buzzi, T. Linder, R. Holmes.  0.81-m f/4.0 
   astrograph + CCD.

Orbital elements:
2019 SR3                                                 Earth MOID = 0.1494 AU
Epoch 2019 Apr. 27.0 TT = JDT 2458600.5                 Veres
M 268.23230              (2000.0)            P               Q
n   0.34467850     Peri.  283.12196     +0.12904952     -0.99013244
a   2.0146205      Node   159.22519     +0.95900427     +0.11059743
e   0.4869076      Incl.    8.85923     +0.25230345     +0.08605792
P   2.86           H   20.4           G   0.15           U   6
Residuals in seconds of arc
190917 F51  0.1+  0.0     190925 F51  0.0   0.1-    190925 F51  0.1-  0.1-
190917 F51  0.0   0.0     190925 F51  0.2-  0.0     190926 H21  0.1-  0.2+
190917 F51  0.1-  0.1-    190925 F51  0.1+  0.1+    190926 H21  0.2+  0.2-
190923 F51  0.0   0.0     190925 F51  0.0   0.1+    190926 H21  0.3+  0.0
190923 F51  0.0   0.1-    190925 F51  0.0   0.0
190925 F51  0.0   0.1-    190925 F51  0.2+  0.1+

Ephemeris:
2019 SR3                 a,e,i = 2.01, 0.49, 9                   q = 1.0337
Date    TT    R. A. (2000) Decl.     Delta      r    Elong.  Phase     V
2019 08 27    22 37 28.7 -07 12 57   0.7833  1.7921   174.8     2.9    21.4
...
2019 09 11    22 17 58.4 -11 26 09   0.7020  1.6938   164.5     9.2    21.4
...
2019 09 19    22 07 16.0 -13 49 28   0.6793  1.6404   153.3    16.0    21.5
...
2019 09 25    22 00 02.0 -15 32 03   0.6705  1.6001   145.2    21.0    21.6
2019 09 26    21 58 56.1 -15 48 24   0.6696  1.5934   143.9    21.8    21.6
2019 09 27    21 57 52.4 -16 04 29   0.6689  1.5866   142.5    22.6    21.6
...
2019 10 03    21 52 23.1 -17 34 45   0.6677  1.5461   134.9    27.3    21.7
...
2019 10 11    21 47 50.3 -19 15 49   0.6724  1.4921   125.4    33.1    21.8
...
2019 10 26    21 49 01.6 -21 20 20   0.6909  1.3918   110.0    42.2    22.0

A. U. Tomatic                (C) Copyright 2019 MPC           M.P.E.C. 2019-S95




More information about the Iaude mailing list